13:54
Airports
History
Links
Donate
Help keep this website running!
PayPal
Bitcoin
This page is community maintained. The information is intended for PC simulator navigation or reference.
Always use approved charts for navigation.
EDFR
Rothenburg ob der Tauber
Rothenburg ob der Tauber (EDFR)
Neusitz, Bayern, Germany (91616)
(U)
Lat/Lng:49° 23' 26.39" N / 10° 13' 5.98" E
49.390663 / 10.218329
Elevation:1309'ft / 399mMSL
ID / ICAO:EDFR
Runways:1
Longest:03-21
Asphalt 805m / 2,640ft
Nearby Weather13:20 GMT 2017-11-18
Nearby weather at ETHN, NIEDERSTETTEN located 11.7 nautical miles from EDFR
Altimeter: 30.09
Visibility: 6.2 statute miles
Wind: 12 knots (from 260°)
Temp: 4°c / 39°f
Humidity: 80.8%

METAR: ETHN 181320Z 26012KT 9999 FEW015 BKN030 04/01 Q1019 BLU

(Powered by phpweather)
Nearby VORs <50NM
Nearby NDBs
Runway 03 / 21
Dimensions:804.7 x 20.1m 2640' x 66'ft
Surface:Asphalt
Runway 03 [A]Runway 21 [B]
Heading:028°TH 208°TH
Lat:
Lng:
49° 23' 14.95"N
10° 12' 56.64"E
49° 23' 37.83"N
10° 13' 15.33"E
User Notes and Comments
49° 23' 26.39" N / 10° 13' 5.98" E
Distance To
Airport ID:
Nearby Airports
(C) NIEDERSTETTEN 11.7 NM
ETHN ( WX ) W 270°
(U) Neustadt Aisch 21.1 NM
EDQN NE 49°
(U) Ingelfingen Buehlhof 25.8 NM
EDGI W 259°
(U) SCHWABISCH HALL 27.2 NM
EDTY SW 226°
(C) Herzogenaurach 32.3 NM
EDQH ENE 65°
(U) Wuerzburg Schenkenturm 32.8 NM
EDFW NNW 334°
(U) Noerdlingen 38.1 NM
EDNO SSE 160°
VFR Chart
Flight Planning at SkyVector.com